{"data":{"norad_id":63058,"epoch":"2026-05-24T18:43:19.078752Z","epoch_age_seconds":94883,"freshness":"FRESH","line1":"1 63058U 25035G   26144.78008193  .00154177  00000+0  11826-2 0  9994","line2":"2 63058  43.0005 277.0757 0002829 247.2685 112.7884 15.70842292 73063","mean_motion":15.70842292,"eccentricity":0.0002829,"inclination_deg":43.0005,"raan_deg":277.0757,"arg_perigee_deg":247.2685,"mean_anomaly_deg":112.7884,"bstar":0.0011826,"rev_number":7306,"period_min":91.670564724011,"perigee_km":354.58328505462,"apogee_km":358.39373616853,"semimajor_km":6734.6255106116,"source":"CELESTRAK","updated_at":"2026-05-25T13:38:19.872153Z"}}